When you browse on this site, cookies collect data to enhance your experience and personalize the content and advertising you see.
Visit our Privacy Policy to learn more. By continuing to use the site, you agree to this use of cookies and data.
  • In Lithuania
  • List of Countries
  • For 7 days
  • Water Temperature
  • Weather Map
  • Weather Widgets
  • user-avatar
    Login

    Hourly Weather Makeevka

    Today, 29 January, Wednesday

    Time Temperature Precipitation Wind Pressure Humidity
    00:00 -5°C° 0 mm 3 mps 744 mmHg 96%
    01:00 -5°C° 0 mm 3 mps 744 mmHg 96%
    02:00 -4°C° 0 mm 3 mps 744 mmHg 97%
    03:00 -4°C° 0 mm 3 mps 744 mmHg 97%
    04:00 -2°C° 0 mm 3 mps 743 mmHg 96%
    05:00 -1°C° 0 mm 3 mps 743 mmHg 96%
    06:00 -2°C° 0 mm 3 mps 743 mmHg 96%
    07:00 -2°C° 0 mm 3 mps 743 mmHg 95%
    08:00 -2°C° 0 mm 3 mps 743 mmHg 95%
    09:00 -2°C° 0 mm 3 mps 743 mmHg 95%
    10:00 -2°C° 0 mm 3 mps 742 mmHg 95%
    11:00 -3°C° 0 mm 4 mps 742 mmHg 95%
    12:00 -1°C° 0.1 mm 3 mps 742 mmHg 96%
    13:00 -1°C° 0.1 mm 3 mps 742 mmHg 98%
    14:00 0°C° 0.1 mm 3 mps 741 mmHg 99%
    15:00 -1°C° 0 mm 4 mps 741 mmHg 99%
    16:00 -1°C° 0 mm 4 mps 741 mmHg 99%
    17:00 -1°C° 0 mm 4 mps 740 mmHg 99%
    18:00 -1°C° 0.1 mm 4 mps 740 mmHg 99%
    19:00 -1°C° 0.1 mm 4 mps 740 mmHg 98%
    20:00 -1°C° 0.1 mm 4 mps 739 mmHg 98%
    21:00 -1°C° 0 mm 4 mps 739 mmHg 98%
    22:00 -1°C° 0 mm 4 mps 738 mmHg 98%
    23:00 -1°C° 0 mm 4 mps 738 mmHg 98%

    Tomorrow, 30 January, Thursday

    Time Temperature Precipitation Wind Pressure Humidity
    00:00 -1°C° 0.1 mm 4 mps 737 mmHg 98%
    01:00 -1°C° 0.1 mm 4 mps 737 mmHg 98%
    02:00 -1°C° 0.1 mm 5 mps 737 mmHg 98%
    03:00 -1°C° 0.2 mm 5 mps 736 mmHg 98%
    04:00 0°C° 0.2 mm 5 mps 735 mmHg 98%
    05:00 -1°C° 0.2 mm 6 mps 735 mmHg 99%
    06:00 -2°C° 0.9 mm 6 mps 735 mmHg 98%
    07:00 -1°C° 0.9 mm 5 mps 735 mmHg 98%
    08:00 -1°C° 0.9 mm 5 mps 735 mmHg 97%
    09:00 -1°C° 0.1 mm 5 mps 735 mmHg 95%
    10:00 -1°C° 0.1 mm 5 mps 735 mmHg 92%
    11:00 -1°C° 0.1 mm 5 mps 735 mmHg 89%
    12:00 -1°C° 0.1 mm 5 mps 736 mmHg 90%
    13:00 -2°C° 0.1 mm 6 mps 736 mmHg 91%
    14:00 -2°C° 0.1 mm 6 mps 736 mmHg 91%
    15:00 -3°C° 0 mm 6 mps 736 mmHg 90%
    16:00 -2°C° 0 mm 5 mps 736 mmHg 90%
    17:00 -4°C° 0 mm 5 mps 736 mmHg 89%
    18:00 -4°C° 0 mm 6 mps 736 mmHg 91%
    19:00 -4°C° 0 mm 6 mps 736 mmHg 92%
    20:00 -4°C° 0 mm 6 mps 735 mmHg 94%
    21:00 -4°C° 0.2 mm 6 mps 735 mmHg 94%
    22:00 -3°C° 0.2 mm 7 mps 735 mmHg 94%
    23:00 -3°C° 0.2 mm 7 mps 734 mmHg 95%

    Day after tomorrow, 31 January, Friday

    Time Temperature Precipitation Wind Pressure Humidity
    00:00 -3°C° 0.2 mm 7 mps 734 mmHg 95%
    01:00 -3°C° 0.2 mm 7 mps 734 mmHg 95%
    02:00 -3°C° 0.2 mm 7 mps 734 mmHg 95%
    03:00 -3°C° 0.4 mm 6 mps 734 mmHg 96%
    04:00 -2°C° 0.4 mm 5 mps 733 mmHg 96%
    05:00 -2°C° 0.4 mm 5 mps 733 mmHg 97%
    06:00 -4°C° 0.2 mm 5 mps 733 mmHg 96%
    07:00 -3°C° 0.2 mm 4 mps 733 mmHg 96%
    08:00 -3°C° 0.2 mm 4 mps 734 mmHg 96%
    09:00 -4°C° 0.1 mm 5 mps 734 mmHg 95%
    10:00 -4°C° 0.1 mm 5 mps 734 mmHg 95%
    11:00 -3°C° 0.1 mm 6 mps 734 mmHg 94%
    12:00 -2°C° 0.1 mm 5 mps 735 mmHg 93%
    13:00 -2°C° 0.1 mm 5 mps 735 mmHg 91%
    14:00 -2°C° 0.1 mm 5 mps 736 mmHg 90%
    15:00 -3°C° 0 mm 4 mps 736 mmHg 91%
    16:00 -2°C° 0 mm 3 mps 736 mmHg 93%
    17:00 -2°C° 0 mm 2 mps 737 mmHg 94%
    18:00 -2°C° 0.1 mm 2 mps 737 mmHg 95%
    19:00 -2°C° 0.1 mm 3 mps 738 mmHg 95%
    20:00 -2°C° 0.1 mm 3 mps 738 mmHg 96%
    21:00 -4°C° 0.1 mm 3 mps 739 mmHg 96%
    22:00 -4°C° 0.1 mm 3 mps 739 mmHg 96%
    23:00 -4°C° 0.1 mm 3 mps 739 mmHg 96%

    1 February, Saturday

    Time Temperature Precipitation Wind Pressure Humidity
    00:00 -4°C° 0.1 mm 3 mps 739 mmHg 96%
    01:00 -4°C° 0.1 mm 2 mps 740 mmHg 96%
    02:00 -4°C° 0.1 mm 2 mps 740 mmHg 96%
    03:00 -4°C° 0 mm 2 mps 740 mmHg 96%
    04:00 -4°C° 0 mm 2 mps 740 mmHg 96%
    05:00 -4°C° 0 mm 2 mps 741 mmHg 96%
    06:00 -3°C° 0 mm 1 mps 741 mmHg 96%
    07:00 -3°C° 0 mm 1 mps 741 mmHg 96%
    08:00 -3°C° 0 mm 1 mps 742 mmHg 95%
    09:00 -2°C° 0 mm 1 mps 742 mmHg 94%
    10:00 -1°C° 0 mm 1 mps 742 mmHg 93%
    11:00 0°C° 0 mm 1 mps 742 mmHg 92%
    12:00 0°C° 0 mm 1 mps 742 mmHg 91%
    13:00 0°C° 0 mm 1 mps 743 mmHg 91%
    14:00 0°C° 0 mm 1 mps 743 mmHg 91%
    15:00 0°C° 0 mm 1 mps 743 mmHg 92%
    16:00 -3°C° 0 mm 2 mps 743 mmHg 93%
    17:00 -4°C° 0 mm 2 mps 743 mmHg 94%
    18:00 -4°C° 0 mm 2 mps 743 mmHg 94%
    19:00 -4°C° 0 mm 2 mps 743 mmHg 94%
    20:00 -5°C° 0 mm 2 mps 743 mmHg 94%
    21:00 -5°C° 0 mm 2 mps 743 mmHg 94%
    22:00 -5°C° 0 mm 2 mps 743 mmHg 95%
    23:00 -5°C° 0 mm 2 mps 743 mmHg 95%

    2 February, Sunday

    Time Temperature Precipitation Wind Pressure Humidity
    00:00 -5°C° 0 mm 3 mps 743 mmHg 95%
    01:00 -4°C° 0 mm 3 mps 743 mmHg 94%
    02:00 -2°C° 0 mm 3 mps 743 mmHg 93%
    03:00 -4°C° 0 mm 3 mps 743 mmHg 93%
    04:00 -4°C° 0 mm 4 mps 743 mmHg 94%
    05:00 -4°C° 0 mm 4 mps 742 mmHg 94%
    06:00 -5°C° 0 mm 4 mps 742 mmHg 94%
    07:00 -5°C° 0 mm 4 mps 742 mmHg 94%
    08:00 -6°C° 0 mm 5 mps 742 mmHg 94%
    09:00 -5°C° 0 mm 5 mps 742 mmHg 94%
    10:00 -4°C° 0 mm 5 mps 742 mmHg 94%
    11:00 -4°C° 0 mm 6 mps 741 mmHg 94%
    12:00 -3°C° 0 mm 6 mps 741 mmHg 95%
    13:00 -3°C° 0 mm 6 mps 740 mmHg 96%
    14:00 -2°C° 0 mm 6 mps 740 mmHg 98%
    15:00 -2°C° 0 mm 6 mps 739 mmHg 98%
    16:00 -1°C° 0 mm 6 mps 739 mmHg 98%
    17:00 -1°C° 0 mm 6 mps 738 mmHg 98%
    18:00 -1°C° 0.4 mm 6 mps 737 mmHg 98%
    19:00 -1°C° 0.4 mm 6 mps 736 mmHg 98%
    20:00 -1°C° 0.4 mm 6 mps 736 mmHg 98%
    21:00 -1°C° 0.5 mm 6 mps 735 mmHg 98%
    22:00 -1°C° 0.5 mm 6 mps 734 mmHg 98%
    23:00 -1°C° 0.5 mm 6 mps 734 mmHg 98%

    3 February, Monday

    Time Temperature Precipitation Wind Pressure Humidity
    00:00 -1°C° 0.6 mm 6 mps 733 mmHg 98%
    01:00 -1°C° 0.6 mm 6 mps 733 mmHg 98%
    02:00 -1°C° 0.6 mm 6 mps 733 mmHg 98%
    03:00 -1°C° 0.2 mm 6 mps 733 mmHg 98%
    04:00 -1°C° 0.2 mm 6 mps 733 mmHg 98%
    05:00 -1°C° 0.2 mm 6 mps 733 mmHg 98%
    06:00 -1°C° 0.1 mm 6 mps 733 mmHg 97%
    07:00 0°C° 0.1 mm 5 mps 733 mmHg 97%
    08:00 0°C° 0.1 mm 5 mps 734 mmHg 97%
    09:00 0°C° 0.1 mm 5 mps 734 mmHg 98%
    10:00 -1°C° 0.1 mm 4 mps 734 mmHg 98%
    11:00 -1°C° 0.1 mm 4 mps 735 mmHg 99%
    12:00 -1°C° 0.1 mm 4 mps 735 mmHg 99%
    13:00 -1°C° 0.1 mm 4 mps 735 mmHg 99%
    14:00 -1°C° 0.1 mm 4 mps 735 mmHg 98%
    15:00 0°C° 0 mm 3 mps 735 mmHg 97%
    16:00 0°C° 0 mm 3 mps 735 mmHg 96%
    17:00 0°C° 0 mm 3 mps 736 mmHg 95%
    18:00 0°C° 0.1 mm 3 mps 736 mmHg 96%
    19:00 -1°C° 0.1 mm 4 mps 736 mmHg 97%
    20:00 -1°C° 0.1 mm 4 mps 736 mmHg 97%
    21:00 -1°C° 0.2 mm 4 mps 737 mmHg 97%
    22:00 -1°C° 0.2 mm 4 mps 737 mmHg 96%
    23:00 -2°C° 0.2 mm 5 mps 737 mmHg 96%
    Show more